Theta_e
294 295 295 295 294 294 294 294 294 294 293 293 293 293 293 293 293 293 291 290 290 289 288 288 287 287 286 286 286 285 284 284 283 283 283 283 283 283 281 282 282 282 281 280 279 279 280 280 279 278 278 278 279 279 279 280 281 281 280 280 281 281 281 280 277 272 272 273 273 271 271 272 271 271 270 270 270 272 272 271 271 271 272 273 277
294 295 295 295 294 295 295 295 295 293 293 293 293 293 293 293 293 291 291 290 289 289 288 288 287 287 286 286 285 285 284 284 283 283 283 283 282 283 282 281 282 281 280 280 279 279 279 279 278 278 278 278 278 278 279 279 280 280 279 280 280 280 280 277 276 273 271 271 271 271 270 271 270 271 270 269 269 270 270 270 271 271 271 271 273
294 294 294 294 294 295 295 294 293 293 293 293 293 293 293 293 292 291 291 290 289 289 288 287 287 286 286 285 285 284 284 284 283 283 283 283 283 282 282 282 282 282 280 281 279 279 279 279 278 277 278 278 278 278 278 278 279 280 280 279 280 280 279 278 277 274 270 270 271 269 270 271 270 270 270 270 270 270 269 269 270 271 272 271 272
293 293 293 293 294 293 294 294 293 293 293 294 293 293 293 292 290 291 290 289 288 288 288 287 286 286 286 285 284 285 284 284 283 283 283 283 283 283 282 282 282 282 282 281 280 279 279 279 278 277 278 278 277 277 277 277 278 279 278 278 279 279 278 277 278 275 272 270 270 269 270 269 270 270 271 270 269 269 269 269 270 270 270 271 271
293 292 292 292 292 292 293 292 293 292 293 293 293 292 292 291 290 290 289 289 289 288 287 286 286 285 285 285 285 284 284 284 283 283 283 283 283 283 282 282 282 282 282 281 281 279 279 280 279 278 278 278 277 277 276 276 277 277 277 276 277 278 278 277 276 275 273 271 270 270 270 269 270 270 270 268 269 268 269 268 269 269 269 270 270
293 292 292 292 292 291 292 291 291 292 292 292 292 292 292 291 290 289 290 290 289 288 288 286 286 285 285 285 285 284 284 283 283 283 283 282 282 282 282 282 282 282 281 281 280 280 280 280 279 278 278 279 278 277 276 276 276 276 276 276 276 277 276 275 275 275 274 272 269 268 268 268 268 269 270 269 268 267 267 268 268 269 268 268 269
292 292 292 292 292 291 291 291 292 292 292 292 292 291 290 290 290 290 289 290 289 287 286 286 285 285 285 285 284 284 283 283 283 283 282 282 282 282 281 281 281 281 281 280 280 279 279 279 279 278 278 279 279 277 276 276 276 276 276 275 276 276 275 275 275 274 273 271 269 268 267 268 268 267 269 269 269 268 267 267 266 268 268 268 268
291 290 290 290 290 291 291 291 291 292 291 290 290 290 289 289 289 289 287 288 288 287 286 286 285 285 285 285 284 284 283 283 282 282 282 282 282 281 281 281 281 280 280 279 279 279 279 279 279 278 278 279 279 278 277 276 276 276 275 275 275 275 275 274 274 273 272 270 269 268 268 267 267 268 269 268 267 268 268 268 267 267 267 268 268
289 289 289 289 290 290 290 290 289 289 289 288 288 289 289 288 288 287 287 287 287 287 287 286 285 284 284 284 283 283 283 283 283 282 282 281 281 281 280 280 280 280 279 279 278 278 278 278 278 278 279 280 281 280 279 279 276 276 275 275 275 275 274 274 274 272 271 270 268 268 267 267 267 266 266 265 266 266 268 268 268 268 268 267 268
289 289 289 290 290 290 290 289 289 289 288 288 289 289 288 288 287 287 287 287 287 286 286 285 285 285 284 283 283 283 283 283 284 286 285 283 281 281 281 280 280 279 279 278 277 277 277 277 278 280 281 281 281 281 281 281 280 278 276 275 275 275 274 273 273 272 271 269 268 267 266 266 266 266 266 266 267 268 267 267 267 267 266 267 267
288 289 289 290 290 289 288 288 288 288 288 288 288 287 287 286 286 286 286 285 285 285 285 284 284 284 284 284 283 283 283 283 285 287 287 287 283 281 280 280 279 279 279 278 278 277 277 276 276 279 280 281 281 281 281 281 281 280 279 279 278 276 275 273 273 272 271 269 269 268 267 266 266 267 266 267 267 267 266 267 267 267 265 265 264
288 288 289 288 288 288 287 287 286 287 286 287 286 286 285 285 285 285 285 284 284 284 284 285 285 284 284 284 283 283 283 285 287 287 288 288 286 282 280 280 279 279 279 278 278 277 276 276 276 277 278 278 278 279 281 281 281 281 280 280 280 280 279 276 274 272 272 270 269 268 268 267 267 267 267 267 266 267 267 267 267 266 266 266 266
288 288 287 287 287 286 286 286 286 286 286 286 285 285 285 285 285 285 285 285 284 284 284 284 284 284 284 284 283 283 283 286 287 287 288 288 288 285 281 280 280 279 278 278 278 277 277 276 275 276 277 280 279 278 278 279 281 281 280 280 280 280 279 279 279 275 274 271 270 269 269 269 267 268 268 268 269 266 267 266 267 267 267 267 267
287 287 287 287 286 286 286 286 286 286 285 285 284 284 285 285 286 286 285 284 284 284 284 284 284 284 284 284 283 283 283 285 287 287 287 288 288 287 282 280 280 279 278 278 278 277 277 276 276 276 276 278 277 277 277 277 277 277 277 276 276 278 279 279 277 276 276 273 271 270 271 270 268 269 269 270 268 267 267 266 268 266 266 265 267
286 287 287 286 286 286 286 286 286 286 285 285 284 285 285 286 285 285 285 285 284 284 284 284 284 284 283 283 283 283 283 285 286 287 287 288 288 288 283 281 279 279 278 278 278 278 277 277 277 276 276 277 277 277 276 276 276 275 274 274 274 275 275 275 274 274 273 272 271 271 270 270 270 269 270 270 269 269 269 268 268 267 267 266 265
287 286 286 286 286 286 286 286 286 286 285 284 284 285 285 285 285 284 284 284 284 284 284 284 284 283 283 283 283 283 283 286 286 287 287 288 288 286 283 281 279 278 278 278 278 277 277 277 276 276 276 275 278 279 278 276 275 274 273 273 274 274 273 275 275 275 272 271 270 270 270 270 271 270 270 269 269 269 269 268 268 266 265 264 263
286 286 286 286 285 285 285 286 285 285 285 284 284 285 285 284 284 284 283 283 283 283 283 283 283 283 283 283 282 283 282 285 286 286 287 288 287 285 283 281 279 278 277 277 277 276 276 276 276 275 275 275 279 280 280 277 274 273 272 272 272 271 271 273 275 275 275 274 274 275 275 275 275 274 274 273 271 270 267 265 264 266 263 261 262
286 285 284 284 284 283 284 285 285 284 284 284 285 285 285 285 284 284 284 283 283 283 283 283 282 282 282 282 282 282 282 283 286 286 287 287 286 284 283 281 279 277 276 276 276 276 276 277 276 275 274 275 280 281 280 276 272 272 271 271 270 270 270 271 272 273 275 275 275 275 276 275 275 275 275 274 273 271 266 263 266 265 262 264 259
285 285 284 284 284 285 285 285 286 285 285 285 285 285 285 285 284 283 283 283 283 282 281 281 281 281 281 282 282 281 282 282 285 286 286 287 286 284 283 280 278 276 275 274 274 274 275 276 277 276 275 276 281 281 281 276 272 272 271 271 270 269 270 270 270 271 271 271 272 272 272 274 273 272 272 274 273 271 268 267 268 264 262 263 262
285 285 285 285 285 285 285 285 285 285 285 285 284 284 284 283 282 282 281 281 281 280 280 280 280 280 280 280 281 281 281 281 282 285 286 286 287 285 283 279 277 275 274 274 273 273 274 275 276 278 278 279 281 281 281 278 273 272 272 271 270 269 271 270 271 270 270 270 270 271 268 266 267 269 270 270 268 267 268 267 267 266 263 263 262
283 283 283 283 283 283 283 284 284 284 284 284 284 283 283 282 282 281 281 280 280 280 280 279 279 280 280 279 279 280 280 280 281 284 285 286 287 286 282 280 278 276 275 274 274 273 273 274 275 278 279 280 281 281 281 280 276 272 272 270 271 272 272 269 270 271 269 269 268 266 265 265 265 265 265 265 265 266 266 267 266 266 264 262 261
282 282 282 282 282 282 282 282 283 284 282 282 282 282 281 281 281 280 279 279 279 279 278 278 278 278 278 278 278 279 279 280 280 282 284 285 286 287 283 280 279 277 275 274 274 273 273 273 274 277 279 280 281 281 281 280 278 272 272 275 276 276 271 270 270 269 267 266 264 263 263 263 262 262 262 263 263 264 265 265 265 265 265 264 262
281 280 280 281 280 280 280 280 281 281 281 280 280 281 279 278 278 278 278 277 277 277 277 277 276 276 275 275 275 276 277 278 281 280 283 285 285 286 286 283 282 278 276 274 274 273 274 274 274 277 279 280 280 281 281 281 278 273 275 276 276 276 272 269 268 267 265 264 263 262 262 261 261 261 261 261 262 263 263 264 264 264 263 264 264
278 278 277 277 277 277 277 278 278 278 278 279 278 278 277 276 276 276 276 276 275 275 275 274 274 274 274 273 273 273 274 276 279 280 281 283 284 286 286 285 282 278 277 275 275 274 274 273 274 277 279 280 280 281 281 281 277 276 276 277 276 275 269 268 267 265 264 263 262 261 260 261 261 261 260 261 261 262 262 263 262 263 262 261 261
276 275 275 274 274 273 273 274 273 273 273 276 276 275 274 273 273 272 273 273 274 274 275 274 274 274 273 273 273 274 275 276 277 279 281 281 283 284 285 286 284 282 277 276 275 274 275 276 277 278 279 280 280 280 280 280 280 276 277 276 274 271 267 266 266 265 263 262 262 262 260 261 261 261 262 261 262 261 261 260 259 258 258 258 257
273 272 271 271 271 269 271 272 271 271 272 273 275 275 275 274 274 272 272 272 273 273 273 274 274 275 275 275 274 274 274 275 275 276 278 280 281 282 284 285 283 281 278 276 276 277 277 277 277 278 278 278 278 277 277 277 279 276 276 274 272 268 267 266 265 264 263 263 262 261 261 261 260 261 261 261 260 259 258 257 256 255 255 254 255
271 271 270 271 270 271 272 272 272 273 272 272 272 273 274 274 273 273 272 273 274 275 275 275 274 274 273 274 273 273 272 273 274 275 276 277 278 279 281 282 282 280 277 275 276 275 276 276 276 277 277 277 277 277 277 277 276 273 273 273 270 268 267 266 265 264 263 263 262 261 261 260 260 259 259 258 257 258 258 256 256 255 253 252 253
269 269 269 269 269 269 269 271 272 271 271 271 271 272 272 273 273 274 274 275 274 274 274 274 274 274 273 273 272 272 272 272 273 274 275 276 276 278 278 279 278 277 275 273 274 274 274 275 275 275 275 275 276 275 275 274 272 272 272 271 268 267 266 267 266 264 264 263 261 260 258 258 257 257 257 257 257 257 257 255 255 253 253 251 250
268 268 268 269 269 269 269 269 269 269 270 270 270 271 270 271 272 272 273 274 273 273 273 273 274 274 274 273 272 271 271 271 272 276 275 277 276 276 277 276 276 276 274 275 272 272 272 273 272 272 272 272 272 273 272 270 270 271 269 267 265 265 265 264 263 263 262 260 259 257 256 257 256 256 255 255 255 255 256 253 255 253 252 253 251
268 268 268 268 268 268 268 268 268 269 268 268 268 269 273 274 274 271 269 274 275 276 277 272 273 273 273 273 274 272 272 273 275 276 276 277 278 279 279 279 278 276 276 277 273 271 271 270 271 270 270 271 270 271 270 269 267 265 264 265 264 263 263 263 263 262 261 260 259 257 257 256 255 255 254 254 254 254 254 254 252 253 251 251 250
268 268 267 267 268 267 267 267 267 267 268 267 267 267 266 270 274 274 273 274 274 275 276 276 276 275 273 271 273 276 275 275 276 276 277 278 278 279 279 280 280 278 278 275 271 269 269 269 269 270 269 270 269 270 269 267 265 264 263 263 263 263 262 262 262 261 260 259 259 258 257 256 254 254 253 254 253 252 252 253 251 250 251 251 250
266 266 266 266 267 267 266 267 266 266 266 267 267 266 266 266 267 272 273 272 273 274 275 276 276 276 276 274 271 271 275 276 276 276 276 276 277 278 279 280 280 279 278 277 269 269 269 269 268 269 269 269 269 269 268 266 265 264 263 261 261 262 262 261 261 260 259 259 258 257 257 256 255 255 254 253 253 251 251 250 250 249 250 250 250
265 265 266 266 266 266 265 265 265 265 265 265 265 266 265 265 265 265 268 272 273 273 273 274 274 275 276 276 276 274 274 275 276 276 276 276 277 276 278 279 280 279 279 274 269 268 269 269 268 269 268 268 268 268 267 265 264 263 263 261 261 261 262 261 261 259 259 259 258 257 256 256 255 254 254 253 252 250 251 249 250 250 250 249 249
264 264 264 264 264 264 265 264 263 263 264 264 264 263 263 263 262 263 264 265 267 269 271 272 272 273 273 274 274 275 275 275 275 275 275 275 276 277 277 276 279 279 278 273 270 267 268 268 268 268 268 268 268 267 265 264 264 263 262 261 261 261 260 260 259 259 258 258 257 256 256 255 255 254 253 253 253 252 251 250 250 249 248 249 249
263 264 264 264 263 263 263 263 263 262 263 262 262 262 262 263 263 262 262 262 263 263 264 265 268 270 270 272 273 274 274 274 274 274 274 275 276 276 277 274 273 274 275 273 270 268 268 267 267 267 267 267 267 265 264 264 263 262 261 261 260 259 259 259 258 258 257 257 256 256 255 255 254 254 253 252 251 251 251 251 250 250 249 249 248
262 262 262 262 262 262 262 262 263 262 261 261 262 262 262 262 262 262 262 261 261 261 262 262 262 265 269 269 270 271 272 273 273 273 273 274 275 276 272 271 271 271 272 269 267 267 268 267 267 266 267 266 266 264 264 263 262 262 261 260 259 259 258 258 257 257 257 257 256 256 255 254 254 254 253 253 252 251 251 251 250 250 250 249 248
262 262 262 261 261 261 261 261 261 262 262 261 260 260 260 261 261 261 261 261 260 259 258 258 261 262 265 265 266 267 269 271 272 272 272 272 274 273 271 271 270 269 269 267 266 265 266 266 266 265 266 265 265 264 263 262 262 261 261 261 260 259 258 258 258 257 257 256 256 255 255 254 254 253 253 252 251 251 251 250 250 249 249 248 249
261 261 261 261 260 260 260 259 260 260 259 259 258 258 258 258 258 259 260 259 260 259 258 258 261 260 261 261 264 264 265 268 269 269 270 271 270 270 270 270 269 269 268 266 265 265 265 266 265 264 264 264 264 263 263 262 262 261 261 260 260 259 259 259 258 257 257 256 256 255 254 254 254 253 252 252 251 250 250 249 249 248 248 248 248
259 261 261 261 261 260 259 259 259 258 258 258 258 258 257 258 258 258 259 259 259 259 258 258 258 259 260 261 260 262 264 263 264 264 265 264 264 263 264 265 266 267 266 264 263 264 265 265 264 263 263 263 263 263 263 262 262 261 261 260 260 259 259 258 257 257 256 256 255 255 254 254 253 252 252 252 251 250 250 249 249 248 247 247 247
258 258 259 260 259 259 259 258 258 258 258 258 257 257 257 257 257 257 258 258 258 258 257 258 258 259 259 259 259 260 259 260 261 261 261 262 261 261 261 261 262 263 263 262 262 262 262 262 262 262 262 262 262 262 262 262 262 261 260 260 259 258 258 257 257 256 255 255 255 254 253 253 252 252 251 251 251 251 249 249 248 248 247 247 246
256 257 258 258 259 258 258 258 257 257 257 257 257 256 256 257 257 257 256 256 257 257 257 257 257 257 258 260 262 262 258 257 258 258 258 258 259 259 259 259 260 260 261 260 260 260 261 261 261 261 261 261 261 261 261 261 260 259 259 258 258 258 258 257 256 256 255 255 254 253 253 252 251 250 249 250 251 250 249 249 248 247 247 247 246
256 256 256 256 257 257 256 256 257 256 256 256 255 255 256 255 256 256 256 255 255 256 255 256 256 256 258 260 260 261 260 257 257 256 257 257 257 257 257 257 258 259 259 259 260 259 260 260 260 260 260 260 260 260 260 259 259 258 258 258 257 257 256 256 256 255 255 254 253 253 252 251 250 250 250 250 249 249 248 248 247 247 246 246 245
256 256 256 256 256 256 255 255 255 255 255 255 254 255 255 254 254 254 254 254 254 254 254 254 254 255 255 258 258 259 257 256 256 256 255 256 257 257 257 258 258 258 258 258 259 259 259 259 258 259 259 259 259 259 259 259 258 258 257 257 256 256 255 254 254 254 254 253 253 252 251 250 250 249 249 249 248 248 247 246 246 245 245 245 244
255 255 255 255 255 255 255 255 254 254 253 254 254 254 253 253 252 252 253 253 253 253 253 253 253 254 254 255 256 255 254 255 255 255 255 256 256 256 257 257 257 257 258 257 257 257 257 257 257 257 257 257 257 258 258 258 258 257 257 256 255 254 254 254 253 253 253 252 251 250 250 249 249 249 248 248 247 246 245 245 245 245 244 242 243
254 254 254 253 254 254 253 253 253 252 253 253 252 253 253 252 252 253 253 252 253 253 253 253 253 253 253 253 253 253 253 254 254 254 254 255 255 255 256 256 256 255 255 256 256 256 256 256 255 254 254 254 255 255 256 255 256 256 257 256 255 254 254 254 254 254 253 252 250 249 249 248 248 248 248 247 246 246 245 245 245 245 243 242 241
253 253 253 253 252 253 253 252 253 252 251 252 252 251 252 252 252 252 252 252 252 252 252 252 252 252 252 252 252 253 253 252 252 252 252 252 252 252 252 252 253 254 254 254 254 254 255 255 255 255 254 254 253 253 254 254 255 255 255 256 256 255 255 255 254 252 251 251 250 250 249 248 248 247 247 246 246 246 245 244 243 244 243 243 242
252 252 252 252 252 252 252 252 252 252 252 252 252 251 251 251 252 252 252 252 252 252 252 251 251 250 251 250 250 250 250 250 250 250 250 250 250 250 251 251 252 253 254 253 252 253 253 253 254 254 254 254 253 253 253 253 253 253 253 254 254 254 253 252 251 251 251 251 251 250 249 248 247 246 247 246 245 245 244 244 243 243 242 242 242
251 251 251 252 251 251 251 251 251 252 251 251 251 251 251 251 251 251 251 250 250 250 250 248 247 248 247 248 248 248 248 249 249 249 249 250 249 250 251 251 252 252 252 252 252 252 252 252 252 253 253 253 252 252 252 251 251 251 251 252 252 252 251 250 250 250 250 250 250 249 249 248 247 246 246 245 245 244 244 243 242 241 241 241 241
251 250 250 250 251 251 250 250 250 250 250 250 250 250 250 249 249 248 248 248 248 246 246 246 247 246 246 248 248 248 248 248 248 247 249 249 249 249 250 251 251 252 251 252 251 251 251 251 251 252 252 252 252 251 251 250 250 250 250 250 251 252 250 249 249 249 248 248 248 248 248 247 246 246 245 245 244 244 244 242 241 242 241 241 241
250 250 250 250 250 249 250 249 249 248 248 248 247 247 247 246 246 246 246 246 245 244 244 245 246 246 246 247 246 248 246 248 248 248 248 248 248 248 248 249 249 249 250 250 251 250 250 250 250 250 250 251 251 251 250 249 249 249 249 249 252 252 250 249 249 248 248 248 248 247 247 247 246 245 245 244 244 243 242 242 242 242 241 241 241
249 249 248 248 248 248 247 246 246 245 244 244 243 244 245 245 245 244 245 245 245 245 245 245 245 245 245 246 246 247 247 247 248 247 247 247 247 247 248 248 248 248 248 248 249 248 249 249 249 250 250 250 250 250 250 249 249 248 249 250 251 251 249 249 248 248 248 247 247 246 246 246 245 244 243 243 242 242 243 243 242 242 240 241 240
Wind_Speed
9 11 9 11 9 10 10 10 11 10 8 8 9 10 9 9 10 11 6 8 8 8 8 9 9 9 8 8 8 8 8 7 7 7 7 7 7 7 6 7 7 6 6 6 4 6 7 7 6 4 4 6 6 6 6 6 6 6 5 6 6 6 7 6 7 7 3 2 6 6 5 6 4 4 5 4 4 4 5 4 4 5 5 4 3
11 11 10 9 11 11 12 10 10 8 10 10 11 11 10 11 11 6 8 8 8 9 9 8 7 8 8 8 8 8 8 9 9 8 9 9 8 6 8 9 8 7 6 8 7 6 6 7 7 6 5 6 6 7 7 7 7 7 7 7 7 7 4 5 5 7 8 4 5 5 6 4 4 4 5 6 5 3 4 2 2 3 4 4 4
7 7 8 9 11 11 11 10 9 11 12 11 11 12 11 10 6 9 8 7 7 8 9 9 8 8 8 8 9 9 10 10 9 10 10 11 11 9 9 10 10 10 10 10 10 8 8 8 8 7 5 6 6 6 5 7 6 8 8 6 7 6 5 4 7 5 10 7 6 7 5 5 3 5 4 4 5 4 4 3 2 3 3 4 4
8 8 8 9 9 8 9 9 10 10 11 10 12 11 9 7 6 8 7 6 8 8 8 9 8 9 10 9 10 10 10 10 10 10 12 12 11 12 10 11 11 11 11 11 10 10 11 10 9 9 7 7 7 6 5 5 7 7 7 5 5 6 5 4 4 7 7 10 8 6 6 5 3 5 5 5 5 4 4 4 3 3 2 3 3
9 9 9 11 10 10 10 9 10 11 11 9 11 9 8 8 7 8 7 8 8 8 8 7 9 9 10 11 11 11 11 9 9 10 9 8 9 9 10 10 10 10 10 10 9 11 10 12 10 10 9 9 7 7 7 8 6 6 7 6 6 5 4 4 5 7 11 12 10 5 4 3 3 6 6 7 6 4 4 4 4 4 3 2 2
9 9 10 11 11 11 10 9 9 9 10 9 9 9 9 8 7 7 9 10 9 9 9 7 8 10 9 10 9 9 8 9 10 10 10 8 8 8 8 9 9 9 9 8 9 9 10 10 10 11 11 12 11 9 8 9 7 7 7 7 6 6 6 5 6 7 9 11 10 9 6 6 7 6 7 6 8 7 6 5 4 3 4 4 3
8 9 9 10 9 10 10 11 10 11 10 10 8 7 8 8 8 9 8 9 8 7 6 7 7 8 9 8 9 10 9 9 10 10 10 9 9 9 9 9 9 9 8 8 8 8 9 8 9 11 12 11 11 12 11 9 8 9 8 8 7 8 8 7 7 8 9 12 4 3 7 5 6 8 7 5 4 5 7 7 4 4 3 5 5
7 6 5 6 6 6 7 7 8 8 7 7 7 7 7 7 8 7 7 8 9 9 10 10 10 9 10 10 10 9 9 10 10 10 9 10 9 10 10 9 9 8 7 7 7 8 8 8 8 10 11 10 9 9 10 10 7 8 7 7 8 8 8 7 7 8 9 11 8 10 6 8 6 3 5 6 5 4 6 5 8 8 6 5 4
6 7 7 9 10 9 8 7 7 7 7 7 8 9 9 9 8 9 9 9 9 10 10 10 10 11 9 9 9 9 9 10 10 10 10 10 10 10 10 9 9 9 8 7 7 8 8 8 8 8 8 8 8 8 9 8 9 10 7 8 8 8 7 7 8 8 9 10 6 4 7 7 7 9 10 10 10 8 8 5 4 5 5 5 4
8 9 10 12 10 10 10 8 9 9 9 10 11 10 9 9 9 9 10 9 9 9 8 9 10 11 10 10 9 9 10 9 12 15 13 11 12 10 9 10 10 10 10 9 9 9 9 8 8 11 12 12 12 13 14 12 10 7 10 11 11 9 9 10 9 10 12 15 10 11 9 8 9 10 8 7 5 6 7 7 7 7 6 5 4
9 9 12 11 10 8 8 8 7 9 10 8 7 7 8 6 7 8 8 7 8 7 7 9 9 8 10 10 11 10 10 10 15 17 20 19 12 11 11 11 10 11 11 11 11 11 9 8 7 9 10 11 10 14 15 15 14 12 12 12 11 13 13 11 10 12 15 17 9 6 8 7 8 7 7 8 7 7 8 7 7 8 8 9 6
9 10 11 6 6 7 7 5 6 8 5 7 6 5 5 6 7 8 7 8 7 5 8 10 9 9 9 9 11 10 10 10 16 18 19 19 16 12 10 10 10 11 11 11 10 10 10 8 8 7 8 10 9 10 13 15 15 13 15 16 15 13 9 11 14 11 12 12 9 8 12 12 10 10 9 9 9 8 8 7 8 8 9 7 7
9 9 7 6 6 6 6 7 8 8 8 7 6 6 7 8 9 9 11 9 6 9 11 9 10 9 10 11 11 10 10 11 17 18 18 19 19 14 10 10 10 11 11 12 11 10 9 9 9 8 7 14 11 9 9 10 13 15 15 15 13 13 11 9 6 5 13 14 12 12 11 9 10 10 9 9 9 8 8 7 7 6 5 4 5
9 9 7 8 7 7 8 9 9 9 7 7 7 8 9 12 10 9 7 6 9 10 9 10 9 10 10 10 10 9 10 10 17 17 18 19 19 17 11 11 11 11 12 12 11 11 12 11 11 10 9 10 9 10 10 9 9 9 8 7 6 8 10 9 7 6 7 8 7 10 8 7 7 9 9 12 11 11 10 9 8 7 6 5 5
9 9 9 9 8 9 9 9 10 8 8 8 8 9 11 10 9 8 8 9 9 10 10 10 10 9 9 9 9 9 10 13 16 18 18 19 19 16 11 9 10 10 10 11 11 12 12 11 12 11 11 11 10 12 11 11 8 7 6 6 5 5 4 4 5 4 4 5 3 5 6 7 8 10 10 9 8 6 6 8 8 7 8 7 6
10 9 10 10 10 9 10 10 9 7 7 7 8 10 10 10 9 6 6 6 6 6 7 7 9 8 8 9 9 11 9 12 15 17 18 18 19 12 10 11 10 10 10 10 10 10 11 11 10 13 11 11 13 18 13 8 8 8 8 7 7 5 4 4 7 7 6 5 5 6 6 8 11 10 10 9 8 8 9 8 8 7 7 6 5
10 9 9 7 6 6 7 7 7 7 6 7 9 10 8 7 6 5 6 7 7 8 9 8 7 8 9 9 10 10 8 10 15 17 18 20 15 10 10 9 10 10 10 9 10 10 10 11 12 11 9 8 16 20 19 14 8 9 9 8 6 6 6 5 9 11 12 13 14 15 16 17 17 17 17 17 11 11 8 8 7 8 6 6 3
6 3 3 1 2 3 4 5 6 6 6 9 10 8 6 5 6 6 8 8 9 9 7 6 7 7 8 10 10 10 9 10 15 17 19 20 17 11 10 10 10 9 8 7 7 8 9 11 8 11 8 10 19 21 21 14 8 8 9 9 9 8 7 7 5 8 13 15 16 17 17 17 18 19 18 18 17 12 8 11 8 7 5 6 7
3 2 2 2 4 5 6 6 6 7 8 9 8 7 7 7 5 5 7 6 7 4 5 6 6 6 7 8 9 11 9 8 14 17 19 20 16 10 9 8 9 8 8 7 6 8 6 11 12 11 9 14 22 21 22 16 13 10 11 8 9 9 8 8 9 10 9 10 10 11 11 14 11 10 11 17 16 11 6 5 6 7 9 5 5
3 4 4 4 4 5 5 6 6 7 8 6 5 6 4 4 5 6 6 6 6 6 6 6 7 7 6 7 8 8 9 7 9 17 18 20 21 12 9 9 10 9 9 10 7 5 5 7 13 19 19 22 22 23 23 21 16 14 15 14 9 9 9 7 7 7 9 8 8 9 8 6 7 6 6 7 6 6 6 4 3 5 6 5 6
2 2 2 2 3 3 3 4 6 6 5 5 4 4 4 5 5 5 6 5 5 6 6 6 7 7 5 6 6 7 7 7 7 15 18 20 22 19 10 11 10 10 10 11 10 9 7 7 7 18 22 24 25 25 24 24 19 13 17 16 15 13 13 8 11 12 7 9 8 8 8 7 6 4 5 4 4 4 5 4 3 3 5 6 6
1 1 1 1 1 1 2 3 3 4 3 3 3 4 3 4 4 5 5 5 6 7 5 6 6 6 5 5 6 6 6 9 7 12 18 20 20 23 13 11 10 9 10 10 11 11 6 7 10 18 24 24 25 26 27 24 24 12 14 17 16 20 12 8 9 9 8 8 8 8 7 8 7 4 4 4 4 5 4 4 4 3 3 4 6
3 2 2 2 3 2 2 2 3 2 2 3 3 3 2 3 3 3 5 5 5 6 6 5 5 6 5 5 4 4 5 6 10 8 13 18 20 21 23 15 14 11 10 12 14 14 11 10 9 19 25 26 26 27 25 26 21 13 21 20 19 21 15 9 9 9 8 8 9 9 9 9 9 6 5 5 5 5 4 4 4 4 4 3 3
3 3 4 4 3 3 3 2 1 1 1 1 1 2 2 3 3 4 4 5 5 5 5 4 4 5 6 5 4 3 3 4 5 9 9 16 19 21 23 18 17 12 11 10 10 12 12 13 13 22 24 25 27 26 26 24 14 21 24 24 23 20 11 10 9 10 10 9 9 9 11 8 6 5 6 5 6 6 5 5 4 4 5 4 5
5 4 5 4 3 3 3 3 3 3 2 0 1 1 2 1 3 2 3 3 4 5 5 4 5 6 5 6 5 4 4 4 4 6 10 12 17 20 22 21 19 18 12 8 9 10 14 21 21 23 25 26 27 27 23 24 23 23 26 26 22 10 10 10 11 10 10 11 11 10 8 7 6 6 6 6 6 6 5 5 6 6 6 7 6
5 4 4 4 4 3 4 4 4 2 2 1 0 1 2 2 3 2 3 3 4 5 5 5 5 5 5 4 4 4 4 4 4 3 4 7 9 16 20 21 18 18 15 11 12 16 20 21 24 24 24 21 16 13 10 12 19 24 26 23 13 10 12 11 10 11 11 10 9 9 8 7 5 5 7 6 6 5 6 5 6 5 5 5 4
4 4 5 5 4 5 5 4 4 4 4 3 3 2 1 0 1 2 2 4 4 4 4 4 4 4 5 4 3 3 3 3 4 3 4 5 8 9 10 11 12 12 8 6 8 10 15 16 15 19 14 18 16 12 10 11 9 15 13 13 11 11 11 11 12 11 8 8 7 7 9 6 6 7 6 7 7 5 6 8 6 6 5 3 5
5 5 5 4 4 4 4 5 5 4 5 5 5 5 5 4 3 2 2 1 2 3 3 3 4 4 4 3 2 2 3 4 4 6 7 7 6 6 7 6 5 7 7 7 8 10 10 10 13 11 10 10 10 8 7 6 9 11 11 10 10 10 11 12 8 7 7 7 7 8 10 8 10 7 7 7 6 7 7 9 8 7 6 7 4
4 4 4 5 5 4 4 5 5 5 4 5 5 4 3 3 3 2 3 2 3 2 2 3 1 1 2 3 4 4 4 5 7 6 6 8 7 7 7 6 5 6 9 12 8 6 6 7 8 8 9 9 9 8 7 6 8 9 9 7 9 9 10 10 11 10 9 9 11 14 13 9 10 7 11 10 7 8 5 10 5 11 5 5 8
5 5 5 5 5 5 5 5 5 5 5 4 3 4 6 8 5 4 2 5 6 6 5 1 1 1 1 3 3 6 7 5 5 10 11 12 13 14 12 11 11 8 12 20 13 9 10 10 10 10 10 9 10 9 7 7 8 6 6 7 9 9 10 10 9 9 9 10 10 13 11 10 12 10 11 11 7 7 7 9 7 6 6 6 6
5 5 6 6 6 5 5 5 5 4 4 4 4 3 3 5 7 8 6 6 6 6 5 5 3 2 3 3 4 4 6 6 7 10 13 15 15 15 16 17 16 16 19 13 9 8 8 8 8 9 9 9 9 10 7 7 8 8 7 7 7 9 9 9 9 9 9 9 8 8 8 9 11 9 14 9 10 8 7 3 7 5 6 6 6
5 5 5 5 6 6 5 5 5 6 6 5 6 5 5 5 6 6 8 7 9 9 8 7 6 6 6 4 3 3 6 8 10 10 10 12 14 16 17 18 18 19 21 21 11 9 9 10 10 9 9 9 9 8 7 7 7 8 8 8 8 8 9 10 9 10 10 9 9 8 8 8 8 8 10 10 7 10 8 8 7 10 6 4 6
7 7 7 6 6 7 7 7 6 6 6 6 6 5 5 5 5 7 7 7 7 8 9 10 11 11 10 8 7 6 5 7 9 10 10 12 13 14 16 18 18 19 22 14 9 9 8 8 9 8 9 9 9 8 8 7 8 7 8 10 10 8 7 6 9 9 9 10 9 9 8 8 7 7 7 7 8 11 7 9 7 7 7 6 6
8 7 6 6 7 6 6 6 5 5 5 5 5 5 5 5 5 5 6 7 7 7 9 12 13 13 13 14 11 7 7 8 8 8 9 10 12 14 14 12 17 19 18 11 9 8 9 8 8 8 8 8 8 7 6 6 7 7 7 6 5 6 7 7 9 9 8 8 8 8 8 8 7 8 7 7 6 7 7 6 6 8 8 7 7
7 8 12 8 5 5 5 5 5 5 5 5 5 5 5 5 5 5 5 5 6 7 7 7 10 13 11 9 11 11 8 7 8 9 9 10 12 13 14 8 8 8 9 8 8 9 10 9 9 8 8 8 8 7 8 8 7 8 8 8 7 7 7 8 8 8 8 8 7 8 8 9 8 8 9 8 8 7 7 7 7 8 8 7 6
6 6 6 7 6 5 5 5 5 5 5 5 4 4 5 5 5 5 4 4 5 5 5 5 4 7 10 10 16 14 12 9 8 8 9 11 12 13 7 6 5 5 6 1 3 4 5 7 8 8 7 7 6 6 7 8 8 8 8 9 9 9 9 8 8 8 7 7 8 8 8 7 8 8 6 6 9 9 7 8 7 7 7 6 6
5 5 5 5 5 5 5 4 4 5 5 5 5 5 5 5 5 5 5 5 4 4 4 5 6 7 7 4 9 12 15 12 9 8 9 9 13 9 5 4 5 3 3 1 3 4 5 4 5 6 6 7 7 7 7 8 7 8 8 8 8 9 9 9 9 8 8 8 7 8 9 8 8 8 9 9 7 6 6 6 6 6 7 6 6
6 6 5 6 5 6 6 5 5 6 6 5 5 4 5 5 5 4 5 5 5 4 5 5 5 5 6 7 8 6 8 10 10 7 6 6 6 5 6 5 4 4 4 2 4 5 5 5 5 6 6 7 7 7 7 7 8 8 9 8 9 8 11 10 10 9 8 8 8 8 8 8 8 8 7 8 8 8 7 7 7 6 6 7 6
5 9 11 10 7 5 4 5 6 6 6 6 5 6 7 6 5 5 5 4 5 4 4 4 4 4 5 5 6 7 7 6 5 4 5 5 4 4 5 6 4 3 1 1 4 4 5 5 4 5 5 5 6 7 7 8 8 8 9 9 8 8 10 8 9 9 8 8 8 8 8 8 8 8 8 8 8 7 8 7 7 7 8 7 7
5 5 7 10 6 7 5 4 4 4 5 5 6 5 5 5 5 5 5 4 5 4 4 5 5 4 4 5 5 5 5 5 4 4 5 5 5 5 4 4 4 3 1 2 2 3 4 4 4 5 6 5 6 7 7 8 8 8 9 9 10 10 10 10 10 10 10 9 9 8 8 8 8 8 7 7 8 7 8 8 8 8 7 7 7
4 5 5 6 7 5 5 5 5 5 4 4 4 4 4 4 4 4 4 4 4 4 4 5 4 5 5 7 10 9 3 3 5 5 4 4 4 5 4 3 2 2 1 1 2 3 4 4 4 5 6 7 7 7 7 7 8 8 9 9 9 10 9 9 9 9 9 9 9 9 8 8 8 9 9 7 6 6 7 7 7 7 7 6 6
5 5 5 5 5 4 4 5 5 4 4 4 4 4 4 4 4 4 4 4 5 5 4 5 4 4 7 12 10 11 6 4 4 5 5 5 5 4 4 3 3 3 2 1 2 3 4 4 5 5 6 6 7 8 8 8 8 8 8 8 9 8 8 8 8 8 9 8 8 9 8 9 9 8 8 7 7 7 7 7 7 7 7 7 6
5 4 4 4 4 5 4 4 4 4 4 4 3 3 4 3 3 4 4 4 4 4 4 5 5 5 5 8 9 9 5 5 4 4 4 5 5 4 4 3 3 2 3 3 4 2 1 2 3 4 5 6 6 7 8 9 8 8 8 8 8 8 8 7 7 7 7 7 8 8 9 8 8 8 7 7 7 7 8 8 7 7 7 7 7
4 4 4 4 4 3 4 4 4 4 4 4 4 5 4 3 3 3 4 4 4 4 4 4 5 5 5 6 6 5 4 5 5 5 5 5 5 5 4 3 2 2 2 2 2 2 1 0 1 0 0 1 1 2 3 4 6 7 8 8 7 7 8 8 8 9 9 9 8 8 8 8 8 7 8 7 8 8 7 7 7 8 7 6 7
4 5 4 5 4 4 4 3 3 4 5 5 4 4 5 4 4 4 4 4 5 5 4 5 5 5 6 5 5 5 5 5 6 5 5 5 5 5 5 5 4 3 3 3 3 2 2 2 2 3 3 2 2 3 4 4 4 6 6 8 9 9 9 10 10 9 9 9 9 8 8 8 8 8 8 8 8 8 8 8 8 7 7 7 7
4 4 4 4 5 5 5 4 5 4 4 4 5 5 4 4 4 4 5 5 5 5 4 4 4 4 5 5 5 6 5 5 5 5 6 6 5 6 6 5 5 4 3 3 3 3 4 3 4 4 5 4 4 4 4 4 5 5 6 6 8 8 8 7 6 8 8 9 9 9 8 8 8 8 8 8 8 8 8 7 6 8 8 8 8
4 4 4 4 4 5 5 5 5 5 5 5 4 4 4 4 5 5 5 5 5 5 5 5 5 5 5 5 6 6 6 6 6 6 5 5 5 6 6 5 5 5 5 3 3 4 4 4 4 4 5 5 5 5 5 4 4 4 4 5 4 5 5 6 7 8 8 8 8 8 9 9 8 8 9 8 8 8 8 8 8 8 8 8 8
5 4 4 4 4 4 4 5 5 5 5 5 5 5 5 5 5 5 5 6 5 6 5 5 6 6 6 6 6 6 5 6 6 6 6 6 6 6 5 5 5 5 5 4 3 4 4 4 4 4 4 4 5 5 5 4 4 4 4 4 5 5 7 8 7 7 7 7 8 9 9 9 8 8 8 9 9 8 8 8 7 6 7 7 7
4 4 4 4 4 4 5 5 5 5 5 5 6 6 6 5 6 5 6 6 6 5 6 6 6 7 6 6 7 6 6 7 6 6 6 6 5 5 6 5 5 5 5 5 5 4 4 4 4 4 4 4 4 4 4 5 5 5 5 5 6 10 10 9 7 7 8 8 7 7 7 8 9 9 9 9 9 8 8 7 7 7 7 5 6
4 5 4 4 5 5 5 5 5 5 5 5 5 5 5 6 5 6 6 6 6 5 5 5 6 6 6 6 7 7 6 6 6 6 6 6 6 5 6 5 5 5 5 5 5 4 4 4 4 4 4 4 4 4 4 5 5 5 5 6 10 12 11 11 10 11 10 7 8 8 8 8 8 8 8 8 8 9 8 8 8 8 7 7 6
5 5 5 5 5 5 5 4 5 5 5 5 6 5 5 6 5 6 6 6 6 7 6 6 6 6 6 6 7 6 6 6 6 6 6 6 6 6 6 6 6 5 5 5 5 5 4 4 4 5 5 4 4 4 4 5 5 5 7 10 12 12 12 11 9 12 12 8 8 8 8 9 9 9 8 7 7 8 9 8 8 7 6 7 6
Wind_Direction
199 210 199 207 202 201 200 201 207 204 200 196 203 208 207 204 207 212 185 198 189 191 195 197 195 197 191 194 190 189 186 185 183 182 189 196 192 190 179 190 194 194 179 185 188 181 184 181 183 184 169 176 180 173 177 177 170 177 171 168 168 168 157 136 124 117 40 93 138 148 151 141 121 134 115 105 91 89 81 48 44 59 36 39 66
206 207 202 199 200 204 205 203 201 193 200 200 206 208 209 208 210 193 198 201 183 197 197 196 196 192 192 196 193 191 191 191 185 184 193 196 196 187 186 190 196 192 186 192 189 190 181 180 183 179 186 180 172 184 176 173 178 171 188 180 177 179 178 110 121 139 146 147 138 137 157 182 102 151 142 135 126 118 95 67 54 49 41 29 39
210 209 207 204 208 208 206 201 193 199 201 205 209 211 213 214 193 197 203 193 193 195 195 195 192 190 195 197 193 196 197 196 189 190 197 195 195 194 191 190 194 191 194 198 189 180 182 188 185 176 176 177 187 185 175 182 179 184 185 184 180 181 180 137 133 126 145 156 159 156 168 170 133 154 144 123 124 120 112 99 62 68 50 29 35
201 198 204 214 215 213 211 204 199 203 206 208 212 214 212 208 188 202 198 186 194 199 195 193 188 191 198 199 199 202 199 198 194 198 200 197 197 197 192 196 199 200 199 194 186 186 188 182 188 178 176 181 183 180 186 177 184 185 180 189 180 179 173 157 149 126 154 137 182 169 157 145 128 136 136 125 125 127 121 107 83 73 56 42 35
200 202 201 207 207 209 213 204 207 207 211 209 215 209 208 202 191 197 188 197 200 194 201 190 194 194 201 204 204 206 205 198 201 206 209 206 205 202 200 201 204 205 204 198 191 190 189 194 179 176 177 182 183 188 182 185 179 175 181 174 176 165 156 157 134 136 149 154 130 153 130 113 118 145 151 145 139 123 127 127 130 122 104 79 39
203 202 204 206 208 206 207 203 211 212 214 215 213 207 204 199 195 199 193 203 204 201 196 192 197 203 208 211 208 210 203 200 205 207 206 204 206 207 205 207 209 209 206 202 197 196 196 194 182 181 182 186 189 183 180 184 173 177 172 171 166 154 155 143 140 146 150 156 146 141 173 160 153 172 169 160 150 147 139 136 121 136 137 132 124
207 209 212 214 216 213 203 205 203 209 210 213 210 206 204 201 198 205 198 206 203 197 197 196 203 204 211 207 207 205 201 201 205 207 205 203 204 204 206 207 209 210 210 205 199 201 202 198 188 188 193 195 185 185 179 179 181 183 177 169 164 162 160 159 153 149 151 137 89 106 136 157 154 159 169 156 157 153 152 146 150 150 159 153 146
210 215 217 228 231 227 221 218 216 216 213 209 207 205 201 200 204 202 188 202 202 197 195 198 203 201 208 206 207 200 199 203 207 206 205 202 201 208 206 206 208 210 210 204 202 204 205 203 198 198 201 199 190 183 177 180 175 178 178 164 166 162 163 156 154 153 149 130 148 155 162 147 156 107 122 147 158 185 191 169 162 165 170 151 163
206 205 208 218 219 214 212 209 210 210 204 203 203 204 202 202 198 197 197 202 201 202 198 194 199 207 207 205 202 197 201 206 204 202 201 202 202 206 205 206 205 207 205 204 204 205 206 206 204 202 203 200 192 182 189 180 171 176 180 171 170 168 160 162 163 154 161 149 123 112 142 161 172 157 168 185 194 178 164 156 149 138 137 131 145
200 204 210 216 213 208 206 203 202 202 202 204 209 203 203 201 198 201 205 205 204 201 197 199 204 207 203 205 203 200 208 208 207 198 196 199 199 201 199 203 201 201 201 201 205 205 206 203 202 196 195 191 187 186 187 189 194 191 174 176 174 172 171 170 172 176 167 159 171 160 167 184 177 183 174 172 138 117 141 160 151 143 134 140 134
207 208 218 217 212 205 201 209 201 208 210 210 209 204 206 199 204 211 211 207 208 202 195 206 212 208 209 206 207 211 212 212 204 203 204 200 193 198 199 202 200 201 202 200 205 202 203 199 197 194 190 189 188 187 188 189 190 190 187 191 187 175 171 178 188 177 173 174 153 162 179 155 174 164 167 153 155 158 159 163 153 151 165 161 169
211 218 225 218 209 205 209 204 210 220 209 216 207 205 198 201 211 213 210 210 207 187 205 213 211 210 212 214 215 216 219 208 205 208 206 203 195 199 202 203 200 204 203 204 206 199 196 191 193 192 193 192 185 185 188 189 188 187 185 191 197 203 207 186 173 177 184 172 172 189 174 186 164 167 168 156 162 154 166 161 168 165 170 180 165
214 224 223 211 211 203 198 202 212 213 210 203 198 191 200 208 214 210 212 206 184 201 215 210 216 212 211 216 221 218 224 203 209 209 207 206 202 195 209 206 204 207 204 204 203 197 190 190 192 194 193 186 182 181 177 181 185 183 183 188 194 197 199 210 220 209 177 175 173 178 189 159 159 179 167 154 151 141 153 155 173 169 175 152 149
212 221 209 209 204 197 198 202 212 213 199 195 192 199 203 214 215 211 207 189 201 212 214 215 215 214 214 216 222 221 223 209 209 208 207 205 204 199 213 208 211 210 206 203 203 199 194 193 191 192 187 184 183 176 172 173 168 169 172 175 178 190 192 187 163 155 183 177 158 175 160 148 161 150 147 154 157 164 162 166 161 154 161 151 125
214 215 212 209 199 200 199 203 211 205 197 194 196 207 212 219 214 209 201 202 204 212 211 214 219 216 216 215 222 225 224 208 207 207 207 206 207 201 213 213 215 216 212 209 207 202 198 198 198 182 181 184 184 176 173 171 158 156 142 145 144 154 129 136 135 139 117 138 103 91 112 124 126 133 143 152 153 151 147 147 143 138 123 111 106
220 211 215 210 203 200 196 205 209 202 196 195 204 216 218 217 217 204 202 212 215 215 224 217 221 215 215 215 219 230 225 202 206 206 208 208 205 208 213 214 217 216 215 212 208 205 202 198 182 169 164 162 176 174 166 137 142 147 144 144 144 128 106 114 114 106 104 93 102 112 111 124 132 137 144 138 130 121 115 111 119 135 139 154 158
230 220 222 215 208 200 202 205 208 203 196 199 214 221 219 220 222 189 207 212 214 217 221 219 214 213 216 214 220 230 228 204 202 204 205 206 204 211 212 215 218 217 216 211 208 201 197 190 176 174 169 160 176 177 173 157 142 150 148 145 135 122 130 124 130 129 126 124 126 131 136 143 147 149 150 148 144 144 134 128 155 152 145 154 174
255 278 274 281 211 199 205 207 211 206 199 211 218 221 216 218 212 188 207 210 218 223 218 223 218 215 216 219 217 226 227 208 204 203 205 205 203 209 212 214 220 215 217 204 202 198 189 175 162 152 152 165 179 179 176 160 145 146 145 145 146 150 147 141 130 138 138 138 139 142 146 148 150 153 155 159 157 155 154 162 165 142 161 165 163
333 280 252 201 195 196 198 203 211 211 213 219 216 219 213 213 201 190 211 214 227 211 208 219 226 219 219 223 217 220 228 213 203 206 204 205 205 212 210 215 214 212 197 196 174 148 157 179 170 167 159 171 181 183 180 168 153 160 160 150 159 159 165 149 150 148 148 143 148 143 148 150 149 149 158 159 160 159 156 144 155 150 160 155 140
240 217 207 202 197 196 196 201 215 218 225 228 218 220 207 198 199 196 209 206 219 212 212 216 225 228 214 220 222 220 224 220 205 207 206 208 206 206 210 203 214 202 193 182 161 164 153 171 183 183 177 181 185 186 187 180 178 168 153 165 157 165 155 149 154 137 145 144 145 142 129 107 117 121 128 129 106 84 126 143 141 146 157 156 138
267 270 235 218 208 208 203 204 221 229 226 228 216 211 197 205 196 197 207 204 210 221 217 219 226 234 215 216 217 220 217 218 209 205 210 210 210 208 211 211 209 198 196 193 189 167 169 169 162 186 184 187 190 192 195 194 185 176 177 175 165 158 148 138 157 149 136 140 127 130 136 133 121 104 107 106 104 111 112 129 106 124 151 164 161
323 308 296 247 244 227 224 240 236 239 240 220 226 226 214 196 203 199 198 200 214 223 222 220 228 234 221 209 213 217 210 209 210 209 211 214 215 214 213 216 204 196 201 172 152 173 161 165 164 186 189 193 196 200 203 199 193 173 185 183 171 165 156 147 146 145 136 138 139 142 145 145 125 119 119 112 113 115 115 124 148 138 152 174 166
10 29 28 20 8 355 340 303 274 264 243 223 217 240 210 195 207 187 197 208 215 227 224 224 227 240 234 223 217 213 208 212 210 211 217 217 220 222 223 221 200 195 199 203 198 165 157 151 168 185 195 201 202 203 203 199 194 179 182 182 179 171 154 156 147 146 148 151 154 158 155 147 141 140 130 135 135 133 137 136 133 137 106 112 146
24 39 33 25 13 12 356 341 325 318 266 230 218 233 229 211 202 202 201 203 217 228 236 219 232 240 238 238 226 215 218 205 216 214 215 223 225 226 230 217 198 197 200 206 201 191 164 165 184 190 195 201 204 205 206 204 188 181 184 187 183 172 150 154 153 160 159 159 163 167 168 160 138 143 144 139 139 139 133 129 113 103 97 80 68
34 31 22 15 13 351 356 6 4 2 354 359 249 263 257 200 208 236 186 214 215 229 241 210 224 238 235 236 213 194 195 199 208 220 217 224 229 231 234 229 209 196 197 204 189 185 186 187 189 193 199 203 204 206 208 209 195 176 187 183 180 154 154 160 168 163 168 178 179 177 165 162 139 126 127 120 117 110 100 80 67 59 61 64 62
37 26 17 20 7 1 26 8 13 13 16 33 155 229 214 211 206 217 178 210 220 224 240 218 226 231 239 232 214 192 186 188 206 216 226 231 237 240 239 240 226 211 196 198 192 182 186 189 193 197 202 204 204 204 206 206 203 179 185 181 170 160 165 171 175 174 183 180 171 169 164 140 112 115 111 120 120 123 122 112 109 89 104 108 100
40 29 23 15 14 19 32 17 7 14 26 33 45 47 51 154 188 207 199 210 224 228 235 228 231 235 234 239 205 175 179 188 193 195 212 223 227 236 240 253 224 205 194 180 174 177 189 191 197 199 198 200 199 199 202 204 191 175 181 179 171 167 173 175 178 176 170 160 156 143 143 119 107 115 135 135 132 134 130 135 131 136 117 118 141
38 28 19 19 21 18 25 20 28 27 29 40 33 18 18 28 46 32 7 317 251 254 242 237 244 235 245 225 185 171 195 195 193 197 214 219 229 232 238 244 207 188 171 173 171 182 186 190 192 196 194 200 203 197 195 178 168 175 180 179 165 164 168 165 150 152 157 151 131 129 106 137 133 142 137 139 138 126 135 129 149 143 139 126 129
40 35 23 24 22 15 24 25 24 28 35 50 50 49 41 18 35 33 37 61 24 24 312 316 311 254 219 200 199 215 211 211 215 213 215 223 220 219 224 209 189 187 178 172 159 165 160 180 181 186 189 191 198 198 184 162 173 177 169 148 150 153 158 159 167 168 156 140 150 148 142 145 141 140 130 127 138 132 144 110 160 130 149 166 179
36 32 26 27 18 18 20 23 22 28 31 32 41 24 49 66 51 73 357 15 35 7 15 81 305 109 193 235 203 205 228 224 205 216 220 225 232 231 230 223 207 186 182 182 170 172 182 181 187 186 188 188 194 198 185 170 166 146 153 156 154 160 165 169 167 160 153 154 150 146 154 147 135 149 124 127 127 123 149 155 142 152 159 186 185
37 31 25 21 18 16 22 24 18 32 26 31 24 30 345 356 46 49 23 18 12 8 350 343 317 231 198 222 270 243 223 234 218 221 229 231 232 235 238 233 217 198 187 178 178 178 183 181 187 188 190 192 193 198 181 176 171 162 159 162 170 166 167 167 167 153 152 148 148 150 153 151 143 146 142 160 148 129 109 127 103 132 176 187 193
42 31 27 18 20 24 24 25 23 28 19 23 23 14 10 4 342 19 41 14 358 359 357 353 339 315 286 251 206 303 268 246 240 242 238 236 239 240 242 240 226 196 191 180 177 188 187 186 189 188 188 191 196 191 182 173 174 173 164 161 174 176 174 175 166 154 151 148 149 155 157 162 165 167 154 136 156 135 145 135 157 155 182 184 202
37 27 26 21 23 24 27 26 24 25 22 21 17 17 24 6 6 342 345 9 13 5 360 360 356 351 341 324 274 234 244 258 257 255 249 244 242 242 244 248 239 204 191 191 180 189 189 191 190 190 185 193 191 188 186 173 176 174 175 174 175 178 175 157 142 150 157 157 152 157 162 160 161 155 160 164 147 134 163 159 175 172 181 190 209
36 35 26 23 27 24 28 25 25 23 25 27 20 26 16 17 10 358 353 345 357 5 8 6 3 360 347 338 338 304 290 296 292 280 271 268 257 249 245 247 251 229 200 193 185 185 189 187 191 190 191 189 192 176 167 165 169 170 167 170 161 144 144 142 151 160 155 155 154 157 157 160 158 156 159 162 168 164 170 173 165 162 190 198 200
34 31 32 30 30 27 23 26 24 26 26 22 24 19 16 10 16 17 13 13 357 351 344 346 350 356 353 345 337 334 313 303 305 298 289 277 265 258 257 256 241 257 225 210 191 182 183 186 185 189 187 187 186 172 172 170 163 164 167 162 156 146 146 160 164 160 153 154 154 162 164 162 168 167 163 162 165 174 182 176 187 187 193 199 193
29 27 25 26 26 27 25 25 23 31 27 17 17 18 18 20 17 13 10 17 7 359 342 343 328 323 347 14 6 354 343 323 308 307 306 300 290 270 263 264 273 253 243 172 122 184 187 187 182 187 184 182 169 162 167 167 172 167 166 162 163 161 160 162 165 164 164 161 163 159 158 166 167 165 164 168 176 179 180 184 188 194 194 194 192
21 25 24 22 21 23 21 20 24 27 28 25 20 20 18 18 16 14 14 9 7 358 350 329 342 347 351 15 11 357 343 338 328 316 303 299 291 286 274 273 264 266 269 177 152 156 181 187 185 184 180 173 174 168 163 166 164 159 163 163 162 163 172 171 171 164 163 166 168 169 172 172 171 172 170 176 182 174 179 180 185 190 193 190 181
15 27 23 20 22 21 25 21 19 24 24 24 19 25 14 16 13 15 10 5 1 2 354 346 358 354 351 333 349 352 337 330 329 332 315 305 307 305 298 281 255 229 234 154 173 173 190 188 173 181 184 172 171 161 161 163 163 161 164 160 168 174 175 173 177 172 175 170 171 171 173 174 174 173 174 177 178 175 181 183 182 185 191 189 188
15 23 28 28 23 24 19 19 18 20 18 20 13 18 11 9 7 9 2 355 355 350 355 351 353 352 343 331 339 335 359 344 343 338 333 336 343 346 346 326 323 298 296 135 161 177 186 187 174 162 170 165 167 167 164 165 164 164 166 163 168 165 172 173 177 176 176 178 176 175 174 176 171 174 178 173 177 176 181 181 184 184 189 196 204
13 10 14 22 22 20 18 17 18 19 13 15 6 9 10 8 7 358 350 352 342 346 348 351 346 341 335 343 333 342 7 334 336 338 336 332 339 345 353 351 336 351 356 148 161 174 175 166 160 160 165 161 167 166 168 166 171 170 168 170 169 175 181 176 176 176 181 181 174 174 171 172 171 169 173 181 176 178 175 183 186 191 191 196 201
11 5 15 15 18 19 16 21 21 17 9 12 1 7 7 359 352 347 345 345 340 343 342 336 329 325 328 332 332 334 348 315 314 320 318 322 326 333 337 344 340 330 353 143 164 166 168 171 176 176 171 169 170 166 169 170 168 168 176 176 177 179 177 177 178 178 173 170 172 169 172 167 164 164 176 186 172 170 178 173 177 183 191 191 191
9 10 10 4 9 16 15 13 13 8 5 9 7 3 1 347 347 341 344 340 338 337 328 325 320 323 331 332 332 329 330 309 309 307 305 313 314 310 317 322 328 338 322 306 218 188 182 178 182 181 183 180 176 176 172 172 175 174 177 177 179 174 174 177 176 171 170 171 170 172 168 169 166 172 168 162 168 171 170 176 180 179 181 190 191
12 8 4 5 7 12 8 5 355 2 360 1 352 345 344 340 341 333 335 327 330 327 325 322 317 324 327 327 331 330 329 320 307 302 304 302 305 305 307 305 300 319 343 340 346 338 281 212 196 199 193 191 186 182 182 181 177 172 172 174 174 172 174 166 164 168 167 167 172 167 164 160 161 165 165 167 169 168 177 174 176 180 186 185 190
6 5 7 9 359 6 359 6 3 354 347 342 335 339 333 344 334 339 332 331 324 322 320 311 311 319 317 325 329 325 317 309 307 298 297 294 292 292 294 303 313 294 303 322 327 6 10 336 221 109 83 146 152 156 173 170 168 170 170 167 171 172 170 171 173 175 176 175 168 162 161 163 162 161 163 166 162 167 172 173 179 184 183 191 186
9 8 5 358 358 356 353 347 350 339 335 337 340 333 337 338 339 330 335 326 319 316 315 310 314 314 316 318 321 316 306 305 301 304 298 296 293 292 295 293 283 260 243 238 231 196 212 200 184 180 190 185 174 171 169 165 173 177 176 170 171 178 182 182 188 182 172 163 160 162 162 163 167 167 170 167 169 168 171 181 180 175 182 187 186
4 360 359 354 350 343 347 338 344 344 336 338 331 332 325 332 319 320 314 312 308 306 304 306 304 302 302 301 301 306 298 299 298 295 294 296 294 293 291 288 283 275 259 242 230 228 224 215 203 201 197 198 190 193 184 181 181 181 179 185 182 184 184 172 151 147 162 165 164 164 165 165 171 174 167 166 168 172 175 174 177 184 186 186 193
354 354 349 348 345 337 333 329 338 331 336 330 324 323 318 316 313 312 307 302 299 301 300 298 300 298 294 293 292 289 290 290 288 289 287 282 286 287 291 287 283 274 271 249 224 221 230 231 229 218 211 200 194 194 190 185 184 182 181 176 171 153 148 152 156 161 163 167 161 158 164 169 167 168 162 159 162 171 170 177 179 186 185 186 186
341 337 330 326 327 319 314 320 319 314 318 315 313 311 310 308 309 305 304 303 302 299 298 294 291 286 289 288 283 284 283 284 279 281 283 284 280 283 284 285 281 278 272 262 238 221 221 225 228 229 225 209 192 193 191 186 181 178 177 175 168 160 145 146 153 153 159 157 163 164 163 165 165 164 166 166 170 168 170 183 180 181 182 184 184
316 316 306 307 301 303 303 307 306 307 302 305 309 304 299 301 296 293 292 288 288 287 284 286 287 288 285 280 282 286 284 286 285 283 283 281 282 278 275 273 275 275 275 266 248 226 223 223 223 223 221 218 202 190 183 182 185 185 184 178 176 163 147 140 147 163 146 151 155 154 155 156 160 165 165 167 169 171 176 170 174 177 179 179 178
309 305 300 299 295 296 299 300 297 297 294 293 292 292 293 289 289 288 286 287 286 282 280 278 278 278 280 285 287 283 283 280 279 279 278 279 280 276 276 273 273 269 266 264 257 240 226 222 222 226 221 219 209 196 185 183 192 186 189 181 185 167 159 156 150 149 152 163 158 161 158 157 154 159 165 165 165 166 171 176 176 177 174 174 184
302 303 302 296 296 294 299 293 291 285 288 286 285 288 294 293 291 293 295 294 289 291 291 288 285 286 281 277 278 279 278 276 274 272 274 273 275 278 276 276 271 271 265 264 260 253 234 225 218 223 218 218 212 206 193 186 185 188 189 184 182 167 162 160 159 165 157 148 152 149 155 157 158 157 162 165 163 171 177 170 173 173 176 180 181